Previsão horária em Celestyny

Hoje, 30 Julho, Sexta-feira

Tempo Temperatura Precipitação Vento Pressão Humidade
00:00 +21°C° 0 mm 2 m/s 746 mmHg 58%
01:00 +20°C° 0 mm 2 m/s 746 mmHg 59%
02:00 +20°C° 0 mm 2 m/s 746 mmHg 60%
03:00 +20°C° 0 mm 2 m/s 746 mmHg 60%
04:00 +19°C° 0 mm 2 m/s 746 mmHg 61%
05:00 +19°C° 0 mm 3 m/s 746 mmHg 61%
06:00 +20°C° 0 mm 4 m/s 746 mmHg 62%
07:00 +20°C° 0 mm 4 m/s 747 mmHg 62%
08:00 +21°C° 0 mm 5 m/s 746 mmHg 56%
09:00 +23°C° 0 mm 5 m/s 746 mmHg 51%
10:00 +25°C° 0 mm 5 m/s 746 mmHg 45%
11:00 +26°C° 0 mm 5 m/s 746 mmHg 43%
12:00 +27°C° 0 mm 6 m/s 746 mmHg 42%
13:00 +28°C° 0 mm 6 m/s 745 mmHg 40%
14:00 +28°C° 0 mm 6 m/s 745 mmHg 41%
15:00 +28°C° 0 mm 5 m/s 745 mmHg 41%
16:00 +28°C° 0 mm 5 m/s 744 mmHg 41%
17:00 +27°C° 0 mm 4 m/s 744 mmHg 46%
18:00 +25°C° 0 mm 3 m/s 744 mmHg 52%
19:00 +24°C° 0 mm 3 m/s 744 mmHg 57%
20:00 +23°C° 0 mm 2 m/s 744 mmHg 58%
21:00 +21°C° 0 mm 2 m/s 745 mmHg 59%
22:00 +21°C° 0 mm 1 m/s 745 mmHg 60%
23:00 +20°C° 0 mm 1 m/s 745 mmHg 61%

Amanhã, 31 Julho, Sábado

Tempo Temperatura Precipitação Vento Pressão Humidade
00:00 +20°C° 0 mm 1 m/s 744 mmHg 62%
01:00 +20°C° 0 mm 1 m/s 744 mmHg 63%
02:00 +20°C° 0 mm 1 m/s 744 mmHg 64%
03:00 +19°C° 0 mm 1 m/s 744 mmHg 65%
04:00 +18°C° 0 mm 2 m/s 744 mmHg 66%
05:00 +20°C° 0 mm 2 m/s 744 mmHg 64%
06:00 +21°C° 0 mm 2 m/s 744 mmHg 61%
07:00 +22°C° 0 mm 3 m/s 744 mmHg 59%
08:00 +25°C° 0.1 mm 3 m/s 744 mmHg 57%
09:00 +26°C° 0.1 mm 4 m/s 744 mmHg 55%
10:00 +27°C° 0.1 mm 4 m/s 744 mmHg 53%
11:00 +27°C° 0 mm 5 m/s 744 mmHg 52%
12:00 +27°C° 0 mm 5 m/s 744 mmHg 50%
13:00 +27°C° 0 mm 5 m/s 744 mmHg 49%
14:00 +27°C° 0 mm 5 m/s 743 mmHg 46%
15:00 +27°C° 0 mm 6 m/s 743 mmHg 43%
16:00 +27°C° 0 mm 6 m/s 743 mmHg 40%
17:00 +26°C° 0 mm 5 m/s 743 mmHg 44%
18:00 +25°C° 0 mm 4 m/s 743 mmHg 48%
19:00 +22°C° 0 mm 3 m/s 743 mmHg 52%
20:00 +21°C° 0 mm 3 m/s 744 mmHg 53%
21:00 +20°C° 0 mm 3 m/s 744 mmHg 54%
22:00 +19°C° 0 mm 3 m/s 744 mmHg 55%
23:00 +18°C° 0 mm 3 m/s 745 mmHg 57%

Depois de amanhã, 1 Agosto, Domingo

Tempo Temperatura Precipitação Vento Pressão Humidade
00:00 +18°C° 0 mm 3 m/s 745 mmHg 60%
01:00 +17°C° 0 mm 2 m/s 745 mmHg 63%
02:00 +16°C° 0 mm 2 m/s 745 mmHg 65%
03:00 +16°C° 0 mm 2 m/s 745 mmHg 68%
04:00 +15°C° 0 mm 2 m/s 745 mmHg 70%
05:00 +17°C° 0 mm 2 m/s 745 mmHg 67%
06:00 +18°C° 0 mm 3 m/s 745 mmHg 65%
07:00 +19°C° 0 mm 3 m/s 745 mmHg 62%
08:00 +20°C° 0 mm 2 m/s 745 mmHg 60%
09:00 +20°C° 0 mm 2 m/s 745 mmHg 59%
10:00 +21°C° 0 mm 2 m/s 745 mmHg 57%
11:00 +20°C° 1.3 mm 2 m/s 745 mmHg 68%
12:00 +18°C° 1.3 mm 2 m/s 745 mmHg 79%
13:00 +17°C° 1.3 mm 3 m/s 746 mmHg 90%
14:00 +17°C° 0.5 mm 2 m/s 746 mmHg 85%
15:00 +18°C° 0.5 mm 2 m/s 745 mmHg 80%
16:00 +18°C° 0.5 mm 2 m/s 745 mmHg 75%
17:00 +18°C° 0 mm 2 m/s 745 mmHg 77%
18:00 +18°C° 0 mm 2 m/s 745 mmHg 80%
19:00 +17°C° 0 mm 2 m/s 745 mmHg 82%
20:00 +17°C° 0 mm 2 m/s 745 mmHg 85%
21:00 +16°C° 0 mm 2 m/s 745 mmHg 88%
22:00 +16°C° 0 mm 3 m/s 745 mmHg 91%
23:00 +15°C° 0 mm 2 m/s 745 mmHg 90%

2 Agosto, Segunda-feira

Tempo Temperatura Precipitação Vento Pressão Humidade
00:00 +15°C° 0 mm 2 m/s 745 mmHg 90%
01:00 +15°C° 0 mm 2 m/s 745 mmHg 90%
02:00 +15°C° 0 mm 2 m/s 745 mmHg 90%
03:00 +14°C° 0 mm 3 m/s 745 mmHg 90%
04:00 +14°C° 0 mm 3 m/s 745 mmHg 89%
05:00 +16°C° 0 mm 3 m/s 745 mmHg 84%
06:00 +17°C° 0 mm 4 m/s 745 mmHg 79%
07:00 +18°C° 0 mm 4 m/s 745 mmHg 74%
08:00 +20°C° 0.1 mm 5 m/s 745 mmHg 69%
09:00 +21°C° 0.1 mm 5 m/s 745 mmHg 63%
10:00 +22°C° 0.1 mm 5 m/s 745 mmHg 58%
11:00 +23°C° 0.1 mm 6 m/s 745 mmHg 54%
12:00 +23°C° 0.1 mm 6 m/s 745 mmHg 50%
13:00 +24°C° 0.1 mm 6 m/s 745 mmHg 46%
14:00 +24°C° 0.1 mm 6 m/s 746 mmHg 49%
15:00 +23°C° 0.1 mm 6 m/s 746 mmHg 52%
16:00 +23°C° 0.1 mm 6 m/s 746 mmHg 55%
17:00 +22°C° 0.1 mm 5 m/s 746 mmHg 57%
18:00 +21°C° 0.1 mm 4 m/s 747 mmHg 59%
19:00 +20°C° 0.1 mm 4 m/s 747 mmHg 60%
20:00 +19°C° 0 mm 3 m/s 747 mmHg 60%
21:00 +19°C° 0 mm 3 m/s 748 mmHg 60%
22:00 +18°C° 0 mm 3 m/s 748 mmHg 60%
23:00 +18°C° 0 mm 3 m/s 748 mmHg 61%

3 Agosto, Terça-feira

Tempo Temperatura Precipitação Vento Pressão Humidade
00:00 +17°C° 0 mm 3 m/s 749 mmHg 63%
01:00 +17°C° 0 mm 3 m/s 749 mmHg 64%
02:00 +16°C° 0 mm 3 m/s 749 mmHg 69%
03:00 +14°C° 0 mm 3 m/s 749 mmHg 73%
04:00 +13°C° 0 mm 3 m/s 749 mmHg 78%
05:00 +14°C° 0 mm 3 m/s 750 mmHg 73%
06:00 +16°C° 0 mm 3 m/s 750 mmHg 69%
07:00 +17°C° 0 mm 3 m/s 750 mmHg 64%
08:00 +19°C° 0 mm 3 m/s 750 mmHg 58%
09:00 +20°C° 0 mm 4 m/s 750 mmHg 52%
10:00 +22°C° 0 mm 4 m/s 751 mmHg 46%
11:00 +22°C° 0 mm 3 m/s 750 mmHg 45%
12:00 +24°C° 0 mm 3 m/s 750 mmHg 43%
13:00 +25°C° 0 mm 3 m/s 750 mmHg 41%
14:00 +25°C° 0 mm 2 m/s 750 mmHg 43%
15:00 +24°C° 0 mm 2 m/s 749 mmHg 46%
16:00 +24°C° 0 mm 1 m/s 749 mmHg 49%
17:00 +23°C° 0 mm 1 m/s 749 mmHg 51%
18:00 +23°C° 0 mm 1 m/s 749 mmHg 54%
19:00 +22°C° 0 mm 1 m/s 749 mmHg 56%
20:00 +20°C° 0.1 mm 2 m/s 749 mmHg 59%
21:00 +19°C° 0.1 mm 2 m/s 749 mmHg 62%
22:00 +18°C° 0.1 mm 2 m/s 749 mmHg 65%
23:00 +18°C° 0.1 mm 2 m/s 749 mmHg 68%

4 Agosto, Quarta-feira

Tempo Temperatura Precipitação Vento Pressão Humidade
00:00 +17°C° 0.1 mm 2 m/s 749 mmHg 71%
01:00 +17°C° 0.1 mm 2 m/s 749 mmHg 74%
02:00 +17°C° 0.1 mm 2 m/s 749 mmHg 76%
03:00 +17°C° 0.1 mm 2 m/s 749 mmHg 78%
04:00 +16°C° 0.1 mm 2 m/s 748 mmHg 79%
05:00 +17°C° 0.2 mm 2 m/s 749 mmHg 79%
06:00 +17°C° 0.2 mm 2 m/s 749 mmHg 79%
07:00 +17°C° 0.2 mm 2 m/s 749 mmHg 79%
08:00 +18°C° 0.1 mm 2 m/s 749 mmHg 79%
09:00 +18°C° 0.1 mm 2 m/s 749 mmHg 78%
10:00 +18°C° 0.1 mm 2 m/s 749 mmHg 77%
11:00 +19°C° 0.3 mm 2 m/s 749 mmHg 76%
12:00 +19°C° 0.3 mm 2 m/s 749 mmHg 74%
13:00 +20°C° 0.3 mm 2 m/s 749 mmHg 73%
14:00 +20°C° 0.4 mm 2 m/s 749 mmHg 72%
15:00 +21°C° 0.4 mm 1 m/s 749 mmHg 70%
16:00 +21°C° 0.4 mm 1 m/s 749 mmHg 69%
17:00 +21°C° 0.6 mm 1 m/s 749 mmHg 73%
18:00 +20°C° 0.6 mm 1 m/s 749 mmHg 76%
19:00 +19°C° 0.6 mm 1 m/s 749 mmHg 80%
20:00 +19°C° 0.1 mm 1 m/s 749 mmHg 82%
21:00 +18°C° 0.1 mm 1 m/s 749 mmHg 83%
22:00 +18°C° 0.1 mm 1 m/s 749 mmHg 85%
23:00 +16°C° 0 mm 1 m/s 749 mmHg 86%
Mostrar mais

Necessitamos do seu Consentimento

A Meteoprog e os seus Fornecedores de Serviços podem armazenar e aceder a dados pessoais como cookies, identificadores do dispositivo ou outras tecnologias semelhantes existentes no seu dispositivo e processar estes dados para personalizar conteúdos e anúncios, assim como funcionalidades nas redes sociais e análise de tráfego.

  • Armazenar e/ou aceder a informações no seu dispositivo

    Os cookies, identificadores do dispositivo ou outras informações podem ser armazenados ou acedidos no seu dispositivo, para os fins acima indicados.

  • Anúncios e conteúdos personalizados, medição de anúncios e conteúdos, dados sobre o público-alvo e desenvolvimento de produtos

    Os anúncios e os conteúdos podem ser personalizados com base num perfil. Podem ser adicionados dados adicionais para uma maior personalização dos anúncios e dos conteúdos. A eficácia dos anúncios e dos conteúdos pode ser medida. Podem ser obtidas informações sobre o público que visualizou os anúncios e os conteúdos. Estes dados podem ser usados para desenvolver ou melhorar sistemas, softwares ou a experiência do utilizador.

Ao clicar em "Eu concordo”, permitirá o uso de cookies, identificadores do dispositivo e web beacons mencionados ou outras tecnologias semelhantes. As configurações do navegador do seu dispositivo podem ser alteradas.

Para certos fins, podem ser invocados interesses legítimos ao invés de consentimento. Pode ler mais informação sobre este assunto na nossa Política de Privacidade e Cookies.